Voltar ao catálogo

CZ-6A DEB

AtivoPO
NORAD 60781·DEBRIS·🇨🇳 China

Lançado Aug 6, 2024 de Taiyuan Satellite Launch Center

Loading…

Próximas Passagens (próximas 24 horas)

TLE

AtualizadoSource: Space-Track

Época: Sep 14, 2026, 10:42 UTC

1 60781U 24140FG  26257.44621028  .00001716  00000-0  56885-3 0  9992
2 60781  88.9409 258.8597 0196525 154.7930 206.3017 14.27011247108628

Acompanhe CZ-6A DEB em tempo real com AllMySat

Download on the App Store